Tracking 31027 objects as of 19-Jul-2025
HD Live streaming from Space Station
objects crossing your sky now

SEA LAUNCH DEMO

Track SEA LAUNCH DEMO now!
SEA LAUNCH DEMO is classified as:


NORAD ID: 25661
Int'l Code: 1999-014A
Perigee: 673.4 km
Apogee: 36,042.2 km
Inclination: 1.1 °
Period: 645.0 minutes
Semi major axis: 24728 km
RCS: 5.9526 m2 (large)
Launch date: March 28, 1999
Source: Sea Launch (SEAL)
Launch site: SEA LAUNCH (SEAL)
Your satellite tracking list
FLOCK 3S 1
Track 1 satellite(s)




NASA's NSSDC Master Catalog

Two Line Element Set (TLE):
1 25661U 99014A   25199.20540811  .00000022  00000-0  16482-2 0  9997
2 25661   1.0710  79.5078 7151335  88.8068 344.2009  2.23253556214642
Source of the keplerian elements: AFSPC